Theta_e
323 321 320 321 322 325 330 333 336 335 335 336 334 333 331 330 338 354 360 358 359 357 358 360 360 364 365 365 365 361 360 362 360 359 359 358 350 346 345 343 345 344 343 344 343 341 341 342 342 342 344 345 344 346 347 347 348 347 348 350 349 351 354 355 356 354 354 354 354 353 354 355 355 355 357 356 356 357 358 357 357 358 357 354 353 353
323 319 319 321 324 325 327 331 334 333 335 338 334 330 331 329 334 350 359 355 355 355 354 359 361 363 366 366 366 363 362 362 359 358 358 358 355 348 346 346 345 344 342 343 343 342 342 341 342 342 344 345 345 346 347 347 349 347 349 351 350 351 353 355 355 352 352 353 353 353 352 355 355 355 357 355 354 356 357 355 355 357 357 358 356 354
322 320 321 323 325 324 326 329 331 335 337 336 334 328 326 330 335 342 353 353 350 350 352 357 359 361 367 366 364 363 363 362 359 360 360 359 357 353 348 346 346 344 344 344 342 343 342 342 344 343 343 346 345 348 348 348 350 349 351 351 351 352 353 354 352 350 352 352 352 352 351 354 354 355 356 353 353 356 357 355 356 356 356 357 358 357
317 320 324 324 325 325 325 326 329 335 336 334 334 326 323 332 332 331 344 353 351 348 350 355 356 360 366 361 357 356 358 361 360 360 362 363 362 359 353 347 346 345 344 345 343 343 343 343 344 344 343 346 347 348 349 350 351 351 352 352 352 353 353 353 351 350 353 351 351 352 351 351 352 353 354 352 352 356 357 357 358 357 354 355 357 359
320 324 325 324 327 326 325 328 329 329 329 333 335 328 326 333 333 335 346 352 349 348 350 351 344 347 353 350 350 349 352 360 361 360 361 362 361 357 358 352 346 346 345 345 345 342 343 343 344 345 344 346 348 349 350 350 351 351 352 353 353 353 354 352 352 352 352 352 352 352 352 352 352 353 354 354 353 355 358 358 359 359 356 357 358 359
323 325 325 325 326 326 327 332 332 331 327 328 335 335 334 336 334 339 349 344 335 337 349 346 336 340 345 342 347 348 354 363 364 363 361 359 358 357 361 359 349 347 346 344 344 343 344 345 345 345 345 346 347 348 351 350 350 351 353 354 353 354 354 353 353 352 352 352 353 353 353 355 355 354 356 357 354 356 357 357 359 360 359 359 359 358
324 325 324 325 326 328 332 334 336 337 328 321 331 337 337 341 337 335 339 333 323 329 348 345 336 340 347 346 352 353 359 365 364 363 362 360 358 358 362 362 352 346 347 344 345 344 344 346 347 346 346 346 347 348 350 350 349 352 354 354 354 354 354 355 355 354 353 355 355 355 356 357 357 356 356 356 354 355 355 356 357 359 359 359 360 358
325 326 324 324 327 330 333 333 336 336 327 322 331 337 337 337 337 335 333 326 324 330 341 342 336 340 344 351 360 360 360 362 363 363 364 365 365 361 359 361 356 345 346 345 344 345 346 347 347 347 346 346 347 347 349 349 350 352 355 355 355 354 354 355 355 355 356 356 357 357 356 355 355 355 356 355 355 353 353 355 356 357 358 358 359 359
325 325 325 326 329 331 332 333 334 334 330 329 332 336 336 336 338 338 331 325 328 326 324 330 331 336 341 351 359 362 357 359 362 362 362 365 367 365 360 359 358 352 349 348 345 345 345 347 348 348 347 346 347 346 347 348 350 354 356 356 356 355 354 356 356 356 358 358 358 356 353 353 353 354 355 356 356 355 354 355 356 357 357 357 357 359
324 325 327 329 329 331 331 333 331 332 332 332 332 334 334 337 337 338 334 324 324 324 319 322 327 333 340 345 350 357 354 355 362 361 361 362 360 363 361 358 358 357 355 353 348 345 346 348 348 347 347 346 346 346 346 347 350 355 357 357 357 356 355 357 356 357 360 359 357 355 352 352 351 352 354 355 356 357 358 359 357 357 358 358 357 359
324 327 330 330 331 331 331 332 330 330 332 331 332 333 332 335 336 334 334 326 322 321 319 322 327 331 338 343 345 351 353 354 360 360 360 362 359 361 359 357 359 358 356 356 354 350 347 348 348 348 347 346 346 347 347 347 350 354 358 358 358 357 356 358 358 359 359 358 357 356 354 353 352 352 353 354 356 358 360 361 359 356 358 358 358 359
325 327 330 330 330 330 330 330 330 331 331 331 332 331 325 325 327 324 324 324 322 320 320 324 328 327 332 343 348 351 354 354 356 358 359 360 360 362 361 359 361 359 358 357 357 357 351 347 348 348 349 347 347 347 347 348 350 354 358 359 358 358 356 358 360 360 359 358 357 357 355 355 353 353 353 355 356 358 360 361 360 359 359 359 358 358
326 328 330 331 330 331 329 326 328 331 332 333 331 323 318 317 319 318 318 319 319 319 321 324 329 332 335 344 350 352 354 353 354 355 356 358 360 362 362 361 361 359 359 357 357 361 358 351 348 349 348 347 348 348 348 348 350 354 359 360 360 359 358 359 361 361 359 358 358 357 356 357 356 354 354 356 357 358 359 359 361 361 360 360 359 357
320 326 329 328 328 329 329 323 321 324 329 330 325 317 315 317 317 318 318 318 318 317 320 326 333 336 339 345 350 351 348 350 352 353 356 357 360 362 360 360 360 358 360 357 355 360 360 355 349 349 350 349 348 348 349 348 350 353 358 361 361 361 360 360 362 362 360 357 357 358 358 358 358 356 356 357 357 358 359 358 360 362 361 361 360 359
315 319 325 327 326 326 328 327 324 326 327 328 329 324 318 315 317 317 315 316 317 316 317 325 335 335 338 345 349 349 347 347 349 352 357 356 358 361 359 359 361 360 361 358 355 358 357 355 353 351 349 349 348 348 348 348 350 353 358 361 362 362 361 361 362 363 360 358 356 357 358 358 359 358 357 357 356 357 358 358 359 360 361 361 359 360
313 314 324 327 325 326 327 327 329 326 322 326 331 326 317 318 318 314 313 314 314 315 317 323 333 339 343 347 347 345 347 346 347 351 354 353 357 360 359 360 362 360 360 359 358 359 357 358 357 354 352 349 348 348 348 349 351 354 357 361 363 363 361 361 363 363 361 359 356 357 358 358 358 359 358 358 356 355 356 356 357 358 359 359 358 359
311 313 323 325 322 325 326 327 329 323 318 323 323 319 321 327 323 313 311 314 311 314 322 327 333 338 341 347 348 345 347 346 346 349 351 352 354 356 359 361 362 361 359 359 359 358 357 357 357 355 354 352 351 349 348 348 350 353 358 361 363 364 363 363 363 363 361 360 358 357 357 357 358 358 358 358 355 353 353 353 354 357 358 359 359 359
315 313 321 323 320 323 325 324 326 324 323 321 316 319 324 325 325 317 313 316 311 313 324 331 332 333 336 344 348 346 346 346 346 347 349 350 351 352 353 355 357 358 358 358 358 358 358 359 358 358 357 356 354 352 352 351 351 352 358 361 363 364 364 363 364 364 362 361 359 358 357 357 357 358 357 357 355 353 353 354 352 355 358 358 359 359
319 313 316 323 321 320 324 322 320 322 325 323 319 322 324 315 316 316 314 316 313 313 326 332 330 332 334 339 345 346 346 345 345 347 348 349 349 350 350 351 352 354 355 357 357 357 359 359 360 360 360 358 356 354 355 354 352 352 354 360 363 365 365 364 364 364 363 361 360 359 359 358 357 357 356 355 355 353 352 354 353 353 355 356 358 358
322 315 313 320 322 321 322 319 315 317 322 325 323 325 326 318 315 315 314 317 313 314 327 333 332 337 341 344 347 349 348 345 344 346 347 348 348 348 348 348 349 351 352 355 356 355 357 359 359 359 359 358 355 355 355 354 354 355 354 359 363 364 364 364 363 363 363 362 359 359 360 360 357 356 355 354 354 353 351 352 353 352 352 354 356 357
323 318 312 317 321 319 317 316 316 317 320 321 318 318 319 318 320 317 316 317 314 314 324 334 337 339 344 350 350 347 347 344 343 344 344 346 346 346 346 346 347 350 351 352 353 353 356 358 358 359 359 357 355 354 353 353 354 354 354 357 361 362 362 363 362 360 362 362 359 358 359 360 359 357 356 354 353 353 352 351 352 352 351 352 354 355
321 320 314 313 314 313 315 320 323 321 322 322 318 318 319 318 318 315 314 315 314 314 321 334 340 340 344 351 348 341 342 342 341 342 341 343 344 344 344 344 344 347 348 350 350 349 353 357 358 359 359 357 356 356 355 355 354 354 354 354 359 361 361 360 359 357 359 361 360 358 359 359 359 357 355 355 353 352 352 351 352 351 350 351 351 353
322 322 317 312 313 316 319 322 322 322 324 323 322 323 323 320 316 311 312 314 313 318 326 332 338 342 344 346 343 339 341 340 340 340 340 342 342 341 342 341 341 343 344 346 346 347 351 353 355 359 359 359 359 358 358 359 357 356 356 355 357 360 358 358 358 355 356 359 359 358 359 360 360 359 355 353 352 351 352 352 351 351 350 350 350 351
321 322 316 313 316 319 321 322 322 323 322 322 321 325 323 321 320 316 317 318 315 320 328 333 337 342 343 342 341 339 340 338 338 339 338 340 340 339 340 339 338 341 342 343 346 347 350 350 351 354 355 358 359 357 358 358 357 356 356 357 357 358 358 358 359 357 355 357 357 357 357 360 361 359 356 352 351 351 351 351 352 351 350 349 349 349
319 319 317 314 314 314 316 317 317 319 320 320 322 325 324 323 325 322 321 322 316 316 323 332 338 340 340 342 341 337 339 338 337 337 336 337 338 337 338 337 336 339 340 342 344 345 346 347 348 349 350 352 355 355 354 354 355 356 357 358 356 356 356 357 356 357 354 354 356 355 356 357 358 358 357 353 349 349 349 349 351 352 352 349 348 349
320 321 320 317 314 315 316 314 313 315 318 321 321 323 324 322 324 321 318 317 315 318 326 333 336 340 341 341 339 337 338 337 336 337 336 336 336 336 337 336 336 337 338 339 340 341 343 345 345 346 346 348 350 352 353 353 355 357 357 358 358 355 355 354 353 354 353 353 355 355 355 354 355 355 355 354 350 346 347 348 348 351 353 351 348 349
323 323 324 323 317 317 319 318 319 319 316 316 318 319 321 322 324 321 317 316 318 322 330 335 337 337 338 340 339 337 337 337 336 337 335 336 336 335 336 335 335 336 336 336 337 338 341 342 344 345 345 346 348 349 351 353 353 355 355 357 358 357 356 354 353 353 352 352 353 355 355 353 353 354 353 353 352 346 345 345 346 349 351 351 349 348
322 319 321 325 320 319 321 319 321 321 316 315 316 318 320 321 324 320 316 319 320 322 331 340 339 335 336 339 339 337 337 337 336 335 335 335 336 334 335 335 335 335 335 334 335 336 338 339 342 344 344 346 348 347 348 349 350 352 354 355 357 357 357 357 356 354 355 355 353 354 355 354 353 354 353 352 351 348 345 344 344 345 348 350 350 348
321 316 317 320 318 319 321 319 320 320 319 319 318 318 319 319 321 318 317 322 324 324 332 342 340 337 339 338 337 336 336 336 335 335 334 334 335 335 335 335 335 333 333 333 334 335 336 337 339 341 340 343 344 344 346 347 348 349 351 352 355 354 354 356 356 354 354 355 354 353 353 353 354 354 353 354 353 350 347 345 344 344 344 347 348 348
317 317 320 318 316 318 319 318 320 318 317 318 317 319 319 318 320 319 320 325 330 331 337 341 339 339 339 337 336 336 334 334 334 334 333 333 334 334 334 334 334 333 333 332 333 334 335 335 338 338 338 339 340 341 343 345 346 347 348 350 352 351 350 353 356 355 352 351 351 352 352 353 353 354 354 353 353 354 352 347 345 343 343 345 346 346
316 317 323 319 315 315 317 318 318 318 316 316 316 318 318 318 319 320 323 326 329 333 338 338 338 339 337 335 336 335 335 335 335 334 333 333 333 333 333 333 333 333 333 332 333 334 333 334 336 337 336 336 338 338 339 342 344 345 345 347 348 349 349 352 356 356 353 352 353 353 354 354 353 353 354 354 353 353 354 354 351 347 344 343 344 345
316 317 321 320 314 312 315 316 315 315 316 313 313 315 316 315 316 318 322 326 325 330 336 336 336 337 337 335 335 334 335 335 335 334 334 333 332 332 332 332 332 332 332 332 333 333 333 333 334 335 336 334 335 336 336 338 342 343 343 344 346 346 348 351 354 354 354 356 355 353 353 354 354 354 354 354 355 355 355 356 357 355 352 347 344 343
317 317 317 316 312 311 314 316 313 313 312 310 311 314 315 316 316 317 322 327 327 329 333 334 335 336 335 333 334 334 334 334 335 334 333 332 332 331 331 331 331 331 331 331 331 331 332 333 333 335 335 334 333 334 335 335 338 341 342 343 344 345 346 349 350 350 350 353 354 353 353 353 354 354 355 354 354 355 356 357 357 359 359 356 349 345
319 318 318 316 312 311 313 315 314 311 310 311 315 317 317 318 316 317 322 328 330 330 330 333 335 335 333 333 333 333 333 334 334 332 332 332 330 330 330 330 330 330 330 329 329 330 331 332 332 333 334 334 333 334 334 334 335 339 341 341 342 343 344 345 346 346 346 348 350 350 351 352 353 354 355 355 355 357 358 359 358 359 361 360 355 350
318 317 318 319 314 312 313 314 313 312 313 317 320 320 320 321 320 321 325 328 330 331 332 333 333 333 333 332 333 332 332 331 330 331 330 329 329 329 329 328 327 328 328 328 328 330 330 329 330 331 332 334 333 333 334 335 334 335 338 339 340 341 342 342 343 343 343 345 346 345 345 347 349 351 353 354 355 356 356 356 357 357 356 355 355 354
319 317 317 318 315 314 314 313 313 316 318 320 321 320 320 322 322 324 327 328 329 330 332 333 332 331 331 331 331 331 330 329 329 329 329 327 327 327 326 326 326 325 326 326 326 328 329 327 327 329 330 331 332 331 332 335 335 335 335 336 337 339 340 340 340 340 341 342 342 342 342 342 345 347 350 352 353 353 352 351 353 355 355 354 354 353
320 320 320 317 315 314 312 312 315 318 319 320 322 320 318 319 319 320 321 325 327 327 329 331 331 330 329 329 329 330 327 328 330 330 328 326 325 325 325 324 324 323 324 325 324 326 326 324 325 327 328 329 330 329 330 333 335 336 336 335 335 337 339 338 339 339 339 339 340 341 341 341 343 345 347 349 351 352 352 351 352 354 356 356 356 356
317 321 323 320 316 313 312 312 314 314 314 318 321 320 318 318 320 319 318 320 325 324 325 330 330 328 327 326 326 327 326 327 331 330 328 325 323 323 324 323 323 322 322 322 322 324 324 324 324 326 325 326 328 327 328 330 333 334 336 335 335 337 338 337 337 338 339 339 339 339 339 341 343 344 345 347 348 351 352 352 352 354 355 355 355 355
316 319 323 320 317 315 313 312 312 313 316 321 321 321 319 318 320 319 315 317 324 324 322 326 327 325 325 325 325 325 324 325 329 329 325 323 322 321 322 322 322 321 321 320 322 322 321 322 323 324 324 324 325 325 325 328 331 332 333 334 334 336 337 336 336 336 337 338 338 338 339 340 342 344 344 344 345 348 351 352 352 353 354 355 355 354
316 318 317 315 313 315 314 312 312 317 322 323 321 319 318 317 317 315 311 315 325 324 321 324 325 323 325 325 323 324 325 326 326 325 322 321 321 320 321 321 321 321 321 320 321 321 320 321 323 323 324 324 325 325 324 326 329 329 331 332 333 335 336 336 335 335 335 337 338 338 338 338 340 342 343 343 345 347 350 351 351 352 353 355 354 354
317 317 315 313 311 311 313 311 313 320 325 323 319 318 317 314 313 314 315 321 325 323 321 323 323 323 324 323 321 322 324 324 323 321 319 320 320 320 320 321 320 321 321 321 321 321 321 322 322 323 323 324 325 325 325 326 326 326 328 330 332 333 334 334 335 335 335 335 336 337 338 338 339 341 342 343 344 347 350 351 352 352 353 353 354 354
316 316 316 315 312 312 313 311 312 319 325 322 319 318 316 314 315 318 323 326 324 323 323 323 323 323 323 321 320 321 322 321 319 318 318 318 319 319 320 321 321 321 321 320 321 321 322 322 322 322 323 324 323 324 325 326 326 326 327 328 330 331 332 333 334 334 334 335 335 336 337 338 339 340 341 343 344 347 349 351 352 353 352 353 354 355
319 317 315 315 315 314 313 312 314 320 324 322 319 319 318 318 322 326 327 325 322 323 323 322 322 322 321 320 319 319 320 318 317 317 318 317 318 319 320 321 321 320 320 320 320 321 321 322 322 323 323 322 323 324 326 326 327 327 327 327 328 329 331 333 333 333 334 334 334 334 335 337 338 338 340 342 344 345 346 347 349 351 353 353 354 355
321 318 317 318 319 316 314 316 319 322 323 321 321 322 322 323 326 326 325 323 322 321 321 321 321 320 319 319 319 318 318 317 316 317 318 318 318 319 319 320 320 319 320 319 320 321 321 321 321 321 322 322 323 323 324 325 327 327 328 327 327 327 330 332 332 331 333 334 334 334 334 334 335 336 339 342 342 342 344 345 346 348 352 354 354 355
320 322 322 322 323 321 319 321 323 323 322 321 321 323 324 325 324 323 323 323 322 320 320 320 320 320 318 318 318 317 317 317 317 317 317 317 318 319 319 319 318 319 319 319 319 320 319 320 320 320 321 321 322 323 323 324 325 326 327 328 327 327 328 329 329 331 332 332 332 333 333 333 333 335 339 340 339 340 342 344 345 346 349 351 353 354
319 322 322 322 322 321 322 322 322 323 323 321 321 322 323 323 322 321 321 321 321 320 320 320 319 320 319 318 318 317 316 316 316 317 316 317 318 318 318 318 318 318 318 318 319 318 318 319 319 320 320 320 321 321 322 322 323 324 325 326 327 327 326 326 327 329 330 331 331 331 332 332 332 334 337 338 338 339 341 343 344 345 347 349 350 351
320 319 320 321 320 318 319 321 322 323 323 321 320 321 321 322 321 320 318 319 320 320 320 320 320 320 318 318 317 317 316 316 316 317 317 318 318 318 318 318 317 317 317 317 317 317 318 318 319 319 320 320 320 320 321 321 322 323 323 324 325 326 326 326 326 328 329 330 330 330 330 332 333 334 335 337 337 337 338 340 342 343 344 345 344 344
322 320 320 320 320 318 319 320 320 321 322 322 321 320 320 321 321 320 317 317 319 320 320 320 319 318 317 316 316 316 316 316 316 317 317 317 318 318 317 317 316 317 316 316 317 317 317 318 318 319 319 319 319 319 320 321 321 322 322 323 324 325 326 327 326 327 328 329 329 329 330 331 332 333 335 335 335 336 336 339 340 340 340 340 340 341
322 320 320 321 321 320 319 320 321 320 320 321 320 320 320 320 320 320 318 318 318 319 320 319 318 317 316 316 316 317 317 317 317 317 316 316 317 317 316 316 316 316 316 316 316 316 316 317 317 318 318 319 318 319 319 320 320 320 321 322 323 324 325 326 326 327 328 328 328 329 329 330 331 333 333 333 333 335 336 337 337 336 336 336 337 337
322 321 321 321 321 321 322 323 324 322 321 321 321 320 320 320 319 319 319 319 318 319 319 319 318 317 316 315 317 317 316 317 317 317 316 316 316 316 315 315 315 315 315 315 315 315 316 316 316 317 317 317 318 318 318 319 319 320 320 321 322 322 324 325 326 326 327 328 328 328 328 329 330 330 330 331 332 334 335 335 335 334 334 334 334 334
322 324 323 322 322 323 323 323 323 323 323 322 321 321 320 320 320 319 319 319 318 318 319 318 317 317 317 316 316 316 316 317 317 316 316 316 315 315 315 314 314 314 315 315 314 315 315 315 315 316 316 317 317 317 318 318 318 319 319 320 321 321 322 324 325 326 327 327 327 327 327 328 328 329 330 331 332 333 334 334 334 333 333 333 333 333
Wind_Speed
8 7 8 9 9 11 13 13 13 15 13 9 7 8 7 6 7 10 12 12 11 8 7 8 7 6 4 7 8 7 6 3 2 4 9 8 11 14 15 15 16 14 14 17 21 20 19 20 20 20 19 19 19 20 21 19 19 19 17 19 19 18 18 16 15 14 13 13 12 13 12 12 12 12 12 12 11 11 12 13 14 14 15 15 15 14
9 8 9 11 13 14 14 14 15 16 12 10 7 6 7 8 6 12 12 13 12 7 8 10 9 7 5 5 6 7 9 7 6 9 9 9 10 13 14 16 16 14 14 17 19 19 20 20 20 20 19 19 21 21 21 19 19 19 17 19 18 17 17 16 15 14 13 12 11 11 12 13 12 11 12 13 13 13 13 13 14 14 14 14 14 13
8 9 12 13 13 15 14 14 15 13 11 10 7 5 7 6 5 11 12 13 10 5 9 12 10 7 7 5 5 3 5 5 6 7 6 8 10 11 12 15 16 14 14 15 17 18 20 21 21 20 19 19 20 21 20 20 19 19 19 19 18 17 17 15 15 14 13 12 10 10 11 13 12 11 11 11 13 13 12 12 12 13 14 13 13 12
8 9 13 14 12 14 15 13 13 11 10 9 6 5 6 7 8 7 10 13 10 6 10 13 10 7 7 5 4 1 2 2 2 3 2 5 5 5 8 12 15 15 15 16 16 17 19 21 21 20 19 19 20 21 20 20 20 19 19 20 18 17 17 16 16 14 13 12 10 9 10 11 12 12 11 11 12 12 12 12 11 12 13 12 12 12
9 10 13 15 12 13 14 13 13 9 8 7 8 7 5 9 9 9 12 12 11 8 10 12 8 6 8 8 4 2 3 5 3 5 4 1 4 8 8 7 13 14 14 16 16 16 18 19 20 20 20 20 20 20 20 20 20 19 20 21 19 18 17 16 16 15 14 13 11 10 9 10 13 14 13 14 14 12 12 12 12 12 13 13 12 11
11 12 13 14 14 13 13 11 10 7 6 7 9 8 6 9 7 12 19 13 7 7 10 11 5 4 7 10 8 4 5 7 5 6 6 4 3 7 6 5 11 13 13 15 16 15 17 19 20 20 20 21 21 20 21 21 20 19 21 21 19 19 17 17 17 16 16 16 13 12 10 10 12 12 13 14 13 13 13 12 12 12 12 13 12 11
9 12 12 14 13 12 10 8 8 8 7 6 9 11 9 10 9 8 15 11 6 5 12 15 5 4 4 5 6 5 6 7 4 3 6 7 4 6 3 5 9 13 13 13 15 15 17 19 20 20 21 21 21 21 21 21 20 20 22 22 20 20 18 17 18 17 17 17 15 13 11 10 10 10 10 10 11 12 13 13 13 13 12 12 12 11
9 13 13 15 12 10 8 7 9 11 8 7 9 13 12 10 10 9 10 9 5 4 10 15 7 5 3 2 3 2 6 9 6 2 2 6 6 6 4 6 11 13 14 13 14 14 16 18 20 20 21 21 21 22 22 21 22 23 24 22 21 21 19 19 20 19 18 18 17 15 13 11 10 10 9 9 11 11 12 14 14 13 13 13 13 12
11 15 13 14 12 9 8 8 12 12 10 11 6 5 11 12 10 10 9 6 4 3 6 11 9 5 3 1 2 1 4 8 9 7 5 5 5 4 3 6 7 7 9 12 14 14 15 18 21 20 20 21 21 22 22 22 22 24 25 23 22 21 20 20 21 20 18 18 17 16 14 13 11 10 10 9 11 12 13 14 15 15 13 13 14 12
11 12 10 10 9 8 9 10 13 11 10 11 4 4 7 12 10 9 7 5 4 4 6 9 11 7 3 3 4 3 4 4 6 8 8 7 7 5 4 5 6 6 5 4 9 13 16 19 21 21 20 21 21 22 21 22 22 23 25 24 23 23 21 21 22 21 19 18 18 17 15 14 12 11 12 10 11 12 13 14 14 16 14 12 14 13
9 8 7 8 9 9 10 10 11 9 10 11 5 3 5 6 8 8 5 5 6 6 9 8 11 9 3 4 4 4 5 2 3 6 7 8 9 8 6 7 7 5 4 2 3 8 16 20 21 21 21 20 21 22 21 21 23 23 24 24 24 24 22 22 23 22 20 18 18 17 16 15 14 13 13 13 11 11 12 13 13 15 14 13 14 13
8 7 8 6 10 7 7 9 8 7 8 10 8 7 5 4 6 7 6 8 7 5 10 8 11 8 2 4 4 6 8 4 2 3 5 6 6 6 7 7 4 1 1 4 6 5 10 16 19 21 21 21 20 23 22 21 23 23 23 24 24 24 23 23 24 23 21 19 18 18 17 16 16 15 14 14 13 12 12 12 13 14 14 14 14 14
6 6 7 7 10 7 10 8 5 2 4 8 8 7 7 6 7 6 6 8 7 6 10 8 9 8 4 7 7 8 10 7 4 4 5 5 2 2 4 4 4 3 3 2 3 5 6 8 16 20 20 21 20 23 23 21 23 23 23 25 25 24 24 24 24 24 22 21 20 19 18 17 17 16 15 15 14 14 13 12 13 13 13 13 14 15
5 7 8 11 10 7 10 9 6 4 7 9 9 7 8 7 7 7 7 7 7 8 9 5 10 8 5 8 8 9 10 9 8 8 9 7 3 3 4 3 4 3 4 3 4 2 6 9 14 19 20 20 20 22 25 22 23 24 23 25 25 24 24 24 24 25 24 23 21 21 20 18 18 17 16 16 15 14 13 13 13 13 13 13 13 14
8 7 10 13 7 9 10 11 3 3 7 10 9 7 9 8 7 7 7 7 7 7 8 9 9 6 6 7 9 10 10 10 11 11 11 8 5 6 5 4 5 3 3 2 1 1 8 13 11 15 18 20 20 21 24 23 24 26 25 26 26 24 24 25 24 25 25 24 23 22 21 20 19 18 17 16 15 15 15 13 13 13 13 13 13 13
12 9 12 10 3 7 14 14 7 6 6 9 7 7 7 8 8 6 6 8 9 6 6 7 6 6 7 8 10 12 12 12 14 13 12 10 7 6 5 4 5 4 3 2 1 2 10 12 7 10 13 19 22 22 22 23 24 25 26 26 26 25 25 25 24 24 24 24 23 23 23 21 21 19 18 17 17 16 16 15 14 13 13 13 13 13
11 6 13 12 4 8 16 15 9 6 5 5 9 10 8 9 10 7 5 8 10 7 5 6 9 9 8 8 9 11 14 14 15 14 12 10 8 7 6 5 4 3 3 2 4 6 8 8 7 9 12 15 19 20 21 23 24 25 27 27 26 25 25 25 25 24 24 24 23 24 24 22 22 21 19 18 18 17 17 16 16 15 13 12 13 14
6 4 11 12 8 8 10 10 8 9 10 5 5 5 7 11 10 5 3 5 8 6 5 9 14 12 8 7 8 10 14 15 14 14 12 10 10 10 9 7 5 4 6 5 5 5 5 5 5 7 8 9 12 14 15 18 23 25 25 26 26 25 25 25 24 24 24 24 24 24 24 23 22 22 20 19 20 19 18 18 17 16 15 14 13 14
6 5 9 9 10 9 6 5 6 11 15 9 5 5 6 8 7 4 3 4 7 6 7 11 14 11 6 6 8 9 12 14 14 14 13 11 10 10 9 9 8 5 7 6 4 1 1 2 2 4 3 2 6 12 11 11 17 23 25 24 24 25 25 24 23 23 23 24 22 22 24 24 23 22 21 20 21 21 19 19 18 17 17 16 15 14
6 4 7 8 10 9 7 6 7 9 12 10 8 8 8 5 4 6 6 5 7 5 8 10 9 5 3 3 7 9 9 12 15 14 12 11 10 10 10 9 9 7 7 6 4 5 5 1 2 4 1 9 5 5 6 7 14 15 17 21 24 24 23 24 24 22 23 23 22 21 23 24 24 23 22 21 22 22 21 20 20 19 18 18 17 16
5 3 4 6 8 6 6 9 8 7 8 8 7 8 7 4 4 5 7 6 7 4 6 10 7 3 1 1 5 10 11 13 15 13 11 10 9 10 10 10 9 8 8 9 9 8 9 7 2 3 3 8 8 7 11 10 10 9 9 13 21 22 21 22 23 22 22 22 21 22 23 24 24 23 22 21 22 22 22 22 21 20 20 20 19 19
2 1 1 4 7 6 8 8 3 1 1 3 6 7 6 6 5 5 7 9 8 3 5 9 7 6 4 2 3 8 11 14 15 14 11 10 11 10 10 11 11 10 9 10 10 10 11 11 9 8 6 3 4 7 8 8 8 11 14 18 17 18 18 20 21 21 22 22 22 22 22 22 23 23 22 21 22 22 22 23 23 22 21 21 21 21
6 3 3 1 5 3 5 6 2 3 5 7 5 4 3 5 7 6 5 5 5 4 10 10 7 6 4 5 5 7 10 12 14 13 11 12 12 10 10 11 11 10 10 10 10 10 12 14 14 13 10 6 4 4 3 2 2 6 10 15 15 14 15 15 17 18 18 18 20 22 23 22 22 23 23 22 23 23 22 22 23 23 23 22 22 22
6 4 2 2 2 3 4 2 2 3 4 6 5 3 3 2 3 5 3 4 3 4 9 6 5 6 5 5 7 8 8 11 12 11 11 11 11 9 10 11 10 10 10 10 9 10 12 15 16 16 15 13 10 9 10 11 9 6 3 4 6 7 9 10 13 14 14 13 14 16 20 23 23 22 24 24 24 24 24 23 23 24 24 22 21 22
4 3 1 1 4 5 3 2 5 6 4 5 7 4 3 6 9 9 4 3 4 1 8 6 5 6 6 6 7 8 9 11 11 11 11 10 9 9 9 9 9 10 10 10 10 11 13 14 15 16 17 15 14 13 15 17 15 11 9 6 4 3 4 7 10 12 15 16 15 15 17 20 23 24 24 25 25 25 25 24 24 24 24 24 23 23
4 3 1 2 4 4 3 2 4 7 4 4 7 4 4 6 7 7 4 2 4 4 9 7 7 7 6 7 9 9 10 11 11 11 12 11 10 10 9 9 9 9 10 12 12 12 12 13 14 16 17 17 16 15 14 14 14 11 9 7 5 5 6 6 6 8 13 16 16 18 20 21 22 24 26 26 25 26 27 26 25 25 25 25 24 23
3 2 3 2 4 3 1 4 2 2 5 9 9 4 3 6 6 4 3 2 2 5 8 8 12 14 12 11 11 11 10 10 10 10 10 10 11 12 11 9 9 10 10 11 11 11 12 12 14 16 16 18 18 17 16 15 14 13 13 14 12 7 3 4 5 6 8 11 14 19 23 23 23 23 24 27 26 25 27 27 26 25 26 26 25 24
3 2 5 3 2 3 4 5 5 6 6 11 9 4 3 4 7 5 5 2 4 3 4 9 14 16 15 14 14 12 10 10 9 9 8 8 9 11 11 11 12 11 11 12 11 12 12 12 13 14 15 16 16 16 16 16 16 15 14 15 14 12 9 8 8 7 5 6 10 14 18 20 22 25 24 24 28 27 26 26 27 27 26 27 27 25
4 4 3 5 4 0 4 5 5 8 6 3 4 3 2 3 4 7 8 5 7 4 7 11 14 15 14 14 14 12 10 9 10 9 8 7 8 10 10 11 12 12 13 12 12 12 12 11 12 15 16 16 15 15 15 15 17 17 16 15 14 12 10 11 12 10 5 3 4 8 11 12 16 23 30 27 24 28 28 26 26 27 27 27 27 26
3 4 2 1 1 1 3 4 4 6 6 5 3 3 2 4 3 5 6 5 6 9 13 15 15 14 12 13 14 11 9 8 8 8 7 6 7 9 10 11 11 12 12 12 12 11 12 12 14 15 17 17 17 16 15 14 15 16 17 17 16 16 13 11 13 12 7 4 5 6 8 10 13 19 25 30 28 24 25 26 25 25 26 27 26 25
0 3 4 4 5 4 4 2 4 4 3 3 3 1 2 6 4 3 2 2 4 10 14 15 15 13 10 12 13 10 8 8 7 7 8 7 6 7 9 10 11 11 11 11 11 11 11 13 14 15 15 16 17 19 18 17 15 16 17 16 16 19 19 15 13 13 10 7 6 7 7 8 10 13 15 18 25 27 24 22 22 23 24 26 26 24
1 1 1 2 5 6 6 6 7 6 3 7 9 5 5 6 5 4 2 1 2 9 16 15 11 10 10 11 12 9 9 9 7 6 6 6 8 8 8 9 10 10 10 10 11 11 11 12 13 14 14 15 16 17 18 18 17 16 17 16 16 17 17 15 14 13 12 10 8 7 7 8 8 11 13 13 15 19 22 22 20 19 19 22 26 25
2 2 2 3 5 6 7 7 4 4 4 7 9 8 9 7 7 5 3 4 4 2 11 11 8 10 12 11 12 11 11 10 9 7 6 6 6 5 5 7 8 8 8 9 10 10 11 11 12 13 13 14 15 15 16 16 16 15 16 15 14 15 14 13 14 15 14 13 13 11 10 10 10 11 14 15 13 15 19 20 20 21 20 19 23 26
2 4 3 3 5 4 6 7 2 3 5 2 2 3 7 8 9 8 5 8 6 4 5 10 12 14 13 12 12 13 12 11 9 7 5 3 3 4 5 8 8 6 8 9 9 10 11 11 12 13 13 13 14 14 15 15 14 14 14 14 13 14 14 13 15 16 17 16 15 16 15 15 14 13 14 15 15 17 20 20 21 22 22 18 17 18
3 4 4 2 5 3 5 6 3 4 3 4 8 6 4 2 2 2 5 8 7 7 11 13 15 14 12 12 12 12 12 12 10 9 7 2 1 2 4 6 7 7 7 7 8 9 11 12 13 13 13 13 14 14 14 15 14 13 13 13 14 14 15 15 16 16 16 16 17 18 20 18 16 16 16 16 17 17 17 17 18 19 18 16 17 15
1 3 3 2 5 4 3 5 4 2 5 7 7 7 6 6 4 5 5 6 6 7 10 11 11 10 11 12 12 10 11 13 11 9 9 5 1 2 2 5 6 6 7 7 8 10 11 12 13 12 12 12 13 14 14 13 13 12 12 12 13 13 14 15 15 15 15 15 16 17 19 20 19 18 18 19 19 18 16 16 16 16 15 15 16 17
3 2 2 2 4 4 4 4 4 4 5 5 5 4 1 1 2 1 3 5 7 7 9 11 10 9 9 11 12 11 10 11 10 7 10 10 4 2 4 6 5 6 8 8 9 10 12 12 12 11 11 11 12 14 13 12 12 11 12 12 13 13 13 14 15 16 15 15 15 16 17 18 19 20 19 19 19 18 15 14 14 13 14 15 17 19
2 1 3 3 2 3 4 4 4 5 5 5 7 7 3 3 4 2 3 4 7 6 8 12 12 11 9 8 9 10 8 7 7 6 9 11 8 4 4 5 5 7 8 9 9 11 12 13 12 11 11 11 12 14 13 11 11 11 11 12 12 12 12 13 14 15 16 16 16 16 16 17 17 18 19 18 18 15 12 13 16 16 16 15 15 19
2 1 2 4 3 3 4 5 5 3 2 5 9 9 6 5 6 4 3 5 6 6 6 8 10 9 6 5 6 6 4 3 5 6 6 7 7 5 4 4 5 6 7 8 10 12 13 12 12 12 12 12 13 14 13 11 11 11 11 11 11 11 11 11 12 14 14 15 16 16 17 17 17 17 17 17 17 16 14 15 17 17 18 19 20 21
3 3 3 4 4 4 4 5 3 1 5 8 10 9 7 7 5 4 5 4 7 8 5 5 7 7 6 7 6 4 3 3 5 5 4 5 7 6 4 4 5 6 8 9 11 12 11 11 12 12 13 13 13 13 13 13 13 12 12 11 10 10 11 11 11 12 13 13 14 14 15 16 16 17 16 15 14 16 17 17 17 17 18 21 23 24
3 3 4 5 5 4 4 5 2 3 6 7 8 8 7 6 4 4 2 3 6 8 4 3 8 9 7 5 4 4 6 6 6 5 4 5 5 5 4 5 6 7 8 9 10 10 9 10 11 12 13 14 14 14 14 14 14 13 12 11 11 10 11 11 11 12 12 13 13 13 12 13 14 14 14 12 12 14 16 17 17 17 18 21 23 24
3 4 4 5 6 4 4 6 4 3 5 5 8 8 4 2 2 2 4 5 6 8 6 5 7 9 7 4 2 3 6 7 5 5 5 5 4 4 5 6 7 7 8 8 8 9 10 10 11 12 13 14 15 15 15 14 14 13 12 12 12 12 12 12 11 12 12 12 12 13 12 12 12 12 12 12 13 14 16 17 17 17 18 19 20 21
1 2 4 5 4 5 5 5 3 1 4 6 7 5 1 1 2 6 7 6 7 8 7 7 8 7 5 4 3 3 5 5 4 5 5 4 4 4 6 7 7 7 8 8 9 10 11 10 10 12 13 14 14 15 15 15 15 13 13 12 13 14 13 12 12 13 13 12 12 13 13 12 12 12 12 12 14 15 17 17 18 18 17 16 17 17
1 2 4 2 1 3 4 2 1 1 5 7 4 3 4 5 6 7 6 6 6 6 6 5 6 5 3 3 4 3 3 2 2 3 3 3 3 4 6 6 7 7 7 8 10 11 11 11 11 12 13 13 13 14 14 14 15 15 14 14 14 15 14 13 14 14 13 12 12 13 14 13 13 13 11 11 13 16 16 17 19 20 17 15 15 15
1 1 2 3 4 4 2 2 2 2 5 5 3 5 9 9 7 6 6 6 5 5 5 4 6 7 5 2 3 2 0 1 1 2 2 2 3 4 6 6 6 7 8 8 9 11 11 12 12 13 13 13 14 14 14 14 14 15 16 16 15 16 16 16 16 15 13 13 13 13 14 15 15 13 10 11 13 14 15 16 17 18 18 16 15 14
2 1 2 3 3 3 1 3 4 4 4 4 5 7 8 8 6 4 4 4 4 4 5 4 5 8 7 4 2 2 2 2 1 0 1 2 3 4 5 5 6 7 8 8 9 10 11 12 12 13 14 14 14 15 15 14 15 15 16 17 17 16 17 18 18 17 15 13 13 14 14 15 15 13 12 12 12 12 13 15 15 16 16 16 16 16
5 4 3 4 4 3 2 5 6 5 5 5 5 6 7 7 5 3 2 3 3 3 5 5 4 6 8 6 4 4 3 2 2 1 2 2 2 3 4 5 6 7 7 8 9 10 10 11 12 13 14 15 15 15 16 16 16 16 17 18 17 17 17 18 18 18 16 14 13 14 14 14 15 15 14 13 11 10 12 13 13 14 14 15 17 19
1 3 4 5 6 5 4 2 2 3 3 4 4 4 5 6 6 4 2 1 2 4 5 6 6 5 5 6 6 5 4 4 3 1 1 1 0 1 3 4 5 6 7 8 9 10 10 12 13 14 15 16 16 16 16 17 17 18 18 19 18 17 17 17 18 18 17 16 14 13 13 13 14 14 13 12 12 12 11 11 12 13 14 15 16 17
2 2 3 3 4 6 6 5 3 4 5 6 6 5 4 5 6 6 4 2 3 5 5 5 5 5 5 5 6 6 5 4 3 2 2 1 1 0 2 4 5 6 8 9 10 11 12 12 13 15 16 16 17 17 17 18 18 19 19 19 19 18 18 17 18 19 18 17 14 13 13 13 12 12 12 13 14 13 11 10 11 13 14 16 16 16
4 5 4 4 5 5 3 2 2 3 4 3 4 5 5 5 6 8 8 6 6 6 7 6 6 5 5 5 5 6 5 4 4 4 3 2 1 1 3 5 6 7 8 9 11 12 13 13 13 15 16 17 18 18 19 19 20 20 20 20 19 19 19 18 18 19 18 17 14 12 12 12 11 11 13 14 14 14 14 14 13 12 13 16 17 16
3 2 3 5 5 3 3 4 4 2 2 1 0 2 3 4 6 7 9 10 9 8 7 7 8 7 5 4 5 5 5 5 6 5 4 3 2 2 3 5 6 7 8 10 11 12 13 14 14 15 16 17 18 19 20 21 22 22 22 22 21 20 20 19 19 18 18 17 16 13 12 13 13 13 13 13 14 15 16 15 14 13 13 14 15 16
Wind_Direction
203 211 212 220 224 222 220 225 238 244 258 271 208 189 221 213 149 154 155 150 164 163 155 158 135 126 164 174 149 141 182 188 150 260 269 237 178 171 177 166 162 168 167 165 163 165 165 161 158 156 155 153 152 148 147 151 150 152 152 147 150 153 150 150 153 154 154 155 156 154 150 146 144 144 144 144 143 141 140 142 142 142 146 151 155 154
206 222 221 218 224 232 229 222 234 246 256 275 254 187 202 233 160 142 149 154 171 173 154 148 125 129 194 195 141 145 178 175 184 212 235 238 196 179 180 165 162 168 165 165 163 164 166 162 159 157 158 156 150 147 150 154 153 154 154 150 154 155 154 158 159 159 158 156 159 159 154 149 151 154 155 155 151 146 144 145 144 142 146 152 156 155
209 225 228 223 221 232 239 226 227 245 246 248 252 205 202 216 134 135 149 156 175 178 150 144 123 140 188 179 134 154 195 163 187 220 244 243 207 186 184 164 162 170 163 164 164 166 167 164 160 159 163 160 152 151 155 157 155 155 155 154 158 157 158 162 160 161 160 158 161 158 149 149 156 159 156 153 149 146 142 144 145 144 149 154 155 153
208 222 227 230 225 227 237 228 219 232 239 240 232 214 209 174 143 149 159 160 178 182 147 140 125 142 171 152 114 320 267 121 196 233 352 314 272 231 208 171 165 170 163 164 167 169 169 164 161 162 166 162 155 156 159 159 158 157 157 157 160 161 161 163 161 162 160 158 160 154 148 152 156 157 155 150 145 146 150 154 155 149 150 151 149 152
221 219 217 229 233 227 234 224 212 219 227 239 233 222 204 190 177 143 150 169 181 169 142 139 129 136 157 144 133 256 201 153 195 190 130 48 277 274 262 192 171 168 164 167 170 172 169 166 163 163 168 164 159 161 161 162 164 160 159 161 164 163 163 164 161 161 160 158 158 155 151 149 150 152 155 156 151 152 158 158 158 158 156 150 150 155
229 223 205 221 227 220 235 225 204 216 220 220 227 227 200 213 220 133 145 173 185 159 154 162 148 131 158 138 138 195 173 162 190 177 153 143 220 266 275 220 187 170 166 170 172 174 169 166 164 164 171 169 164 166 165 165 166 162 161 164 166 165 165 166 164 162 162 161 162 164 158 149 150 154 159 160 157 158 160 159 160 163 160 152 155 159
233 230 206 216 219 208 232 234 198 208 231 221 204 210 205 215 233 162 157 182 200 169 171 190 197 112 149 110 122 164 142 152 188 149 137 135 194 248 240 238 212 175 168 173 175 177 170 167 166 167 175 173 167 169 168 167 167 162 161 164 167 168 167 167 166 165 166 164 163 166 164 160 160 160 165 163 157 160 161 160 159 159 158 155 159 157
227 229 213 211 210 195 212 233 210 198 222 244 201 195 203 211 227 216 203 205 199 160 168 199 213 113 126 27 72 163 142 144 150 127 129 141 186 229 209 231 220 180 172 177 179 179 171 169 168 169 176 176 171 170 170 169 166 161 162 166 167 169 170 169 170 169 168 167 167 170 168 169 171 164 168 163 151 154 156 156 156 155 161 161 157 153
217 229 220 205 202 196 204 226 224 202 207 239 235 197 202 206 227 235 230 225 205 185 183 208 207 129 118 168 108 142 164 148 141 156 190 173 185 222 231 246 240 203 186 180 183 183 173 171 170 172 178 178 173 171 172 170 165 161 164 168 168 170 172 172 173 171 172 172 171 175 174 173 177 166 165 165 152 151 150 153 156 154 159 161 154 154
209 224 220 207 205 198 204 223 229 214 212 232 283 335 218 194 213 236 237 249 239 229 231 212 184 142 104 136 136 130 138 132 129 147 167 177 190 194 210 246 243 243 248 204 192 188 177 173 173 174 180 181 173 170 173 170 165 162 164 169 170 171 174 174 175 174 174 177 175 179 179 176 178 167 165 169 158 154 151 153 157 153 155 159 156 158
219 190 177 215 225 204 202 217 226 220 219 226 220 251 235 191 211 229 223 250 244 231 250 221 156 142 140 131 136 130 119 113 116 123 137 165 187 177 182 219 214 221 257 314 275 210 185 177 176 178 181 183 174 168 174 171 167 166 167 171 173 172 175 176 178 178 176 178 179 183 182 178 178 169 168 171 163 161 159 156 158 156 158 161 160 163
246 184 153 224 243 236 234 216 212 218 220 232 215 193 209 198 219 226 207 232 239 225 246 218 136 124 155 137 134 134 131 135 117 109 118 140 172 168 173 193 179 124 15 9 341 284 206 180 177 182 182 183 175 167 174 175 169 169 169 172 175 174 177 177 177 180 180 179 181 185 184 180 179 174 172 174 170 171 171 167 164 163 166 167 167 168
250 209 154 217 223 232 259 219 185 235 220 243 236 192 200 201 203 224 215 219 226 226 239 212 123 93 86 116 130 131 131 137 127 126 125 120 136 130 132 140 122 112 104 78 331 307 273 206 182 183 181 182 178 168 173 179 172 171 172 174 177 177 178 178 178 180 183 182 182 185 185 183 181 179 177 177 176 177 179 177 172 171 173 171 170 171
218 203 181 226 202 183 254 226 167 203 203 231 246 197 197 210 193 210 225 219 220 224 219 158 97 97 118 118 124 120 118 124 112 108 117 121 121 82 62 78 106 110 106 158 213 238 285 248 197 187 180 178 183 174 175 182 174 171 174 175 179 181 180 179 180 182 184 185 185 185 185 185 183 182 181 180 180 180 182 184 180 178 179 176 175 173
206 202 193 224 184 140 236 246 230 266 205 216 247 210 199 219 208 204 214 214 218 215 185 137 103 124 144 123 126 122 116 117 105 99 104 101 90 78 57 65 103 106 103 154 226 342 274 259 213 190 184 179 186 184 180 182 175 170 174 178 180 181 182 183 183 183 185 186 187 186 186 186 186 186 185 184 185 183 183 187 187 185 183 181 183 179
221 221 173 194 226 168 215 242 272 296 227 197 224 230 215 232 242 234 225 224 221 204 168 139 108 112 130 130 134 125 115 109 97 93 93 87 85 84 63 63 97 113 119 135 151 235 253 254 214 193 197 188 189 191 188 183 175 171 173 178 183 183 183 185 186 186 187 187 187 188 187 187 187 188 188 188 189 188 186 187 190 192 190 185 184 182
225 209 139 152 230 208 209 229 234 253 255 185 197 223 233 245 259 262 248 246 233 202 141 117 114 121 135 135 131 122 111 101 91 86 84 84 87 80 68 68 87 121 139 173 208 220 231 228 200 200 209 200 193 196 196 186 179 176 174 176 182 185 185 186 187 188 189 188 189 190 189 189 189 189 191 191 191 191 190 190 191 192 194 191 184 182
236 143 133 156 193 195 208 238 232 236 252 224 193 231 246 243 255 277 293 272 241 203 134 130 133 137 146 136 135 130 113 101 94 87 78 73 72 64 59 54 62 134 161 182 210 233 233 208 197 203 206 206 205 208 209 196 184 177 175 178 182 186 188 188 189 189 189 190 190 192 192 191 191 191 192 193 192 192 192 191 191 190 193 193 189 187
275 151 148 177 197 184 189 241 237 239 251 263 297 306 268 242 236 224 251 279 238 194 130 138 143 137 140 140 138 128 113 105 95 83 72 61 56 57 56 42 37 87 136 158 175 202 252 197 208 236 204 149 219 233 234 229 212 193 182 182 185 188 190 190 191 190 190 192 192 193 195 194 194 194 195 195 192 193 194 193 191 191 192 192 194 195
281 164 150 183 193 172 173 214 220 223 237 251 269 260 239 250 263 213 215 261 251 197 134 144 151 122 80 109 124 114 108 105 94 81 72 59 49 48 51 42 30 43 81 93 74 37 13 8 210 242 39 74 89 236 239 266 263 232 195 185 186 191 193 192 194 193 191 194 195 195 196 197 198 198 198 199 195 194 196 196 194 192 191 190 193 197
268 183 145 174 178 164 179 204 211 207 210 216 232 237 220 230 287 246 214 229 258 250 148 141 136 113 33 319 127 117 109 105 96 89 82 69 59 50 43 42 36 31 47 55 46 30 15 9 62 147 87 84 107 165 195 216 252 247 223 208 193 189 195 197 197 196 195 195 198 198 197 198 201 201 201 202 199 198 197 197 197 194 192 192 192 194
324 220 134 164 180 198 186 176 180 320 296 255 228 221 214 211 234 239 215 217 242 266 126 129 119 119 149 198 139 107 101 105 101 97 94 84 76 66 49 41 37 31 35 43 43 36 29 27 44 79 90 99 129 155 184 200 193 189 219 233 209 187 195 204 204 202 199 198 200 201 200 200 202 202 203 205 203 202 201 199 199 197 195 194 194 194
11 317 317 170 179 183 138 124 72 1 342 313 264 225 231 219 219 230 229 231 231 111 103 122 122 112 146 163 130 99 95 102 99 96 100 94 81 71 60 51 43 38 36 38 41 40 41 43 45 56 65 61 68 91 70 20 113 164 210 227 211 192 198 211 216 208 200 201 207 206 202 202 204 203 204 206 207 205 203 202 200 199 198 197 196 196
350 293 320 24 130 112 99 115 264 278 311 291 245 237 287 298 306 301 341 358 304 110 103 114 118 122 157 149 117 111 110 106 97 95 100 96 88 81 70 59 52 51 46 40 43 46 47 47 44 46 49 46 44 51 43 28 22 17 332 238 204 193 195 212 227 218 204 208 222 224 214 205 204 205 205 207 208 208 206 203 201 200 200 200 199 197
327 270 258 246 193 167 152 202 225 225 253 245 216 228 336 354 342 335 11 19 305 69 102 113 116 124 151 145 130 138 130 115 107 102 96 87 84 84 80 71 61 58 56 51 46 45 44 42 41 42 43 43 45 49 49 42 32 10 338 321 317 290 231 225 237 228 216 213 221 238 240 225 212 206 207 210 209 209 209 206 202 201 200 201 202 199
324 320 344 265 234 180 166 249 213 195 214 246 237 258 334 322 315 332 3 326 299 42 82 114 132 126 143 150 140 135 124 111 106 106 102 97 93 85 77 75 70 63 58 54 47 42 41 39 42 41 38 40 44 45 48 46 37 23 8 5 355 310 271 260 257 236 222 222 228 234 236 238 232 216 208 211 212 209 209 209 205 201 200 203 204 201
318 327 70 31 336 36 23 313 328 170 205 219 226 239 306 313 316 322 323 332 36 66 83 119 137 138 147 150 135 122 118 111 104 103 100 102 105 99 91 82 74 69 63 56 49 46 43 40 46 49 44 39 35 33 38 37 29 26 27 30 31 22 340 300 301 281 247 245 254 241 224 228 243 241 222 213 215 214 209 208 209 204 200 202 205 205
308 271 137 152 297 16 357 334 355 337 257 211 204 201 225 306 337 307 266 328 32 50 114 134 140 140 142 144 135 124 122 117 111 106 98 96 98 98 101 98 85 76 69 62 56 53 48 41 43 50 57 54 43 34 32 27 25 27 27 29 33 39 44 39 20 355 316 280 268 253 233 228 244 262 259 232 217 217 213 208 209 208 204 200 202 208
301 279 166 175 203 240 334 325 330 335 347 117 119 81 196 255 304 276 267 331 16 54 134 143 142 137 136 137 130 121 122 122 115 110 104 110 112 98 89 87 82 77 72 63 57 56 55 50 43 41 45 52 52 46 38 29 26 23 18 21 24 25 33 41 38 33 19 346 303 271 262 254 249 264 279 274 244 225 218 213 210 209 207 202 200 206
307 319 355 332 290 227 273 310 309 328 12 61 89 60 359 303 283 262 282 357 52 107 131 138 134 130 133 130 118 105 104 106 103 95 74 65 99 109 97 81 72 70 69 65 58 56 55 53 48 44 41 41 42 42 40 40 40 28 18 18 15 10 11 20 31 37 44 33 354 321 290 278 256 249 272 291 288 262 236 223 215 210 209 206 204 205
18 350 353 329 311 254 214 241 279 292 338 309 253 187 280 290 286 276 304 33 106 122 127 130 129 128 132 126 115 107 104 100 92 89 76 53 53 82 91 85 74 63 61 64 61 56 55 52 47 45 44 42 41 39 31 29 37 34 25 22 19 15 12 12 20 28 36 38 8 344 331 312 279 245 247 279 292 289 277 257 235 221 213 208 209 210
213 239 303 272 274 251 209 209 240 252 265 268 260 232 219 247 253 239 217 212 152 135 134 137 136 135 138 130 122 124 125 118 103 89 87 73 51 45 52 63 62 53 51 58 59 54 53 51 44 41 42 42 44 47 38 28 27 25 19 21 27 27 22 15 16 23 30 31 9 334 327 330 307 270 257 260 261 268 278 279 266 249 232 213 208 211
266 264 219 208 247 244 197 190 230 249 238 254 255 229 209 220 242 234 161 67 5 151 154 156 146 134 140 143 140 143 142 131 117 99 90 89 83 72 67 69 62 50 46 49 54 55 51 46 41 35 36 38 39 45 47 41 36 26 14 13 23 31 31 24 21 22 24 24 13 351 335 333 327 301 284 277 260 250 257 263 264 263 257 235 214 209
257 280 269 224 248 236 164 144 141 234 229 267 335 213 199 203 221 223 154 95 51 25 108 132 137 140 151 161 153 147 143 135 128 121 112 103 115 125 101 81 74 62 52 44 46 53 49 44 41 31 28 33 35 39 46 45 41 32 18 9 11 21 28 28 25 21 17 15 11 3 358 356 350 337 315 297 286 278 270 260 254 258 264 259 243 223
181 236 265 267 259 239 133 128 173 227 204 69 54 53 55 69 182 162 104 99 96 86 98 119 139 148 154 153 145 143 142 137 136 137 135 121 124 157 125 89 73 65 62 50 44 52 47 38 35 28 22 25 30 33 39 42 38 31 22 13 8 13 21 23 23 20 14 9 4 359 357 357 352 346 338 325 308 296 287 280 277 284 292 294 295 296
255 225 236 258 256 242 160 168 201 171 107 94 75 60 48 41 67 98 105 112 120 125 126 131 138 136 125 124 133 145 143 138 141 146 144 142 296 305 85 81 59 48 54 50 45 54 51 35 26 21 16 19 30 32 29 35 38 30 24 19 11 11 16 17 16 15 12 7 1 356 353 353 351 348 345 339 329 317 305 298 303 316 316 293 282 290
314 306 269 242 232 236 233 202 165 139 147 145 124 114 108 59 96 173 208 164 152 164 156 142 145 152 144 143 157 167 164 153 149 147 142 139 131 17 60 73 53 40 41 37 37 46 46 30 16 13 8 12 31 31 18 23 36 31 25 20 11 10 13 13 9 6 4 3 357 353 352 351 350 347 346 346 341 332 316 298 293 298 291 269 251 243
273 307 311 291 217 216 255 247 189 178 195 176 142 134 129 92 86 65 266 187 164 177 165 153 164 178 172 168 168 163 167 167 152 147 149 139 126 105 84 64 42 38 31 21 23 29 28 18 8 5 3 8 25 21 5 14 31 27 23 19 10 10 13 10 6 360 356 355 351 349 350 348 346 346 346 350 348 339 319 292 278 269 263 256 249 245
205 197 285 288 254 218 242 254 239 208 133 119 122 119 111 101 100 110 223 201 160 156 168 169 176 175 148 116 114 121 138 166 136 131 141 122 104 97 82 47 27 28 20 17 24 17 6 2 -0 359 -0 7 15 5 354 10 26 19 16 13 3 6 11 7 3 358 352 349 345 345 346 345 345 347 349 349 343 332 321 306 290 272 258 251 247 252
207 203 227 247 254 247 239 248 257 78 98 116 121 116 112 114 129 180 207 183 147 147 166 173 161 148 112 93 98 100 90 98 106 104 102 99 98 94 80 59 35 24 14 16 22 11 355 355 358 356 356 1 2 354 352 8 15 6 4 2 354 358 3 358 355 352 348 345 342 341 344 344 344 344 345 343 332 322 320 315 303 286 271 263 258 258
211 218 226 235 242 238 235 247 249 92 105 126 129 121 116 122 163 208 184 110 123 129 130 148 143 132 111 104 122 113 91 94 107 111 96 85 86 76 62 57 44 30 20 15 16 9 359 1 -0 353 352 354 353 349 352 360 358 352 350 347 344 349 351 347 346 344 342 342 339 337 339 341 341 337 334 332 323 312 310 308 303 295 285 278 272 268
216 213 217 235 247 243 237 243 231 128 121 136 125 116 118 160 196 148 97 82 100 107 95 87 105 110 112 117 109 88 97 105 107 99 82 66 63 57 50 49 40 28 20 13 13 15 9 2 355 350 350 348 347 347 349 346 343 342 340 335 334 338 336 335 338 337 336 338 337 336 335 334 333 330 325 325 323 316 312 309 306 301 294 286 280 276
253 235 223 219 233 245 244 242 243 162 134 141 132 121 122 283 107 111 107 95 95 104 104 95 97 108 128 135 116 88 91 89 73 74 75 60 51 53 50 47 37 24 16 9 12 18 11 358 352 349 345 342 342 344 343 339 336 334 331 327 328 328 325 325 329 329 330 333 334 333 330 326 326 326 322 322 324 322 319 317 314 308 297 284 279 278
277 259 256 258 293 274 256 232 237 156 129 133 134 96 90 102 113 120 122 117 115 118 114 109 116 124 126 123 120 106 84 80 76 84 88 70 51 52 50 42 29 17 13 10 10 12 5 354 349 344 337 336 339 338 337 335 331 326 324 323 324 323 322 322 322 320 321 328 331 330 328 326 323 320 318 322 326 323 319 318 316 312 305 293 283 276
272 39 334 335 343 333 333 80 118 154 139 127 110 96 103 115 124 120 120 132 145 147 141 150 154 142 133 121 117 118 188 173 105 74 69 62 54 47 36 25 20 15 9 5 5 4 357 348 341 336 333 334 335 334 334 332 327 322 322 323 323 322 318 315 313 311 315 323 326 325 325 323 318 315 318 323 321 317 316 316 315 313 313 310 302 290
261 338 348 316 308 310 291 132 133 161 161 137 124 122 125 131 130 127 141 158 168 163 154 169 171 150 147 160 175 191 209 184 147 85 47 44 37 34 20 10 12 10 2 360 358 354 348 341 336 334 332 331 332 332 330 328 324 320 319 319 318 314 311 309 309 309 311 316 319 320 321 319 316 315 317 316 313 311 313 313 312 314 318 320 322 322
224 244 253 253 267 275 216 161 154 174 184 169 156 149 149 150 143 148 188 181 172 165 146 131 127 136 145 164 192 206 206 197 210 207 78 53 12 9 8 -0 356 352 350 352 351 346 343 338 335 333 330 329 330 329 326 324 322 318 316 317 315 312 311 311 310 308 307 306 309 312 314 314 313 312 311 310 312 314 311 311 314 320 326 331 336 340
234 281 256 236 239 250 255 224 143 152 180 197 202 184 168 166 159 158 202 203 156 150 144 140 145 157 169 180 187 195 203 202 199 186 144 171 161 32 356 332 329 336 344 346 344 344 343 337 332 329 327 326 326 325 323 321 318 316 315 314 312 311 309 307 304 300 297 296 299 304 307 306 304 305 308 311 313 311 309 312 319 323 327 330 332 333
119 271 265 246 243 249 260 267 243 215 213 213 218 217 209 200 183 169 173 184 152 149 156 162 168 185 205 195 172 175 194 195 176 193 225 222 137 131 299 311 327 336 338 338 339 340 339 333 328 325 323 323 323 323 322 319 316 316 314 312 311 310 307 304 303 299 294 291 292 295 298 298 298 305 313 313 310 307 304 303 305 310 312 311 313 319
212 249 251 240 240 246 269 328 312 252 234 210 217 234 235 232 215 189 177 184 195 188 180 179 188 208 225 212 176 173 187 189 180 198 227 238 239 271 300 317 326 329 332 335 336 334 329 326 324 322 322 324 326 325 323 320 319 317 313 311 310 308 305 304 301 297 292 288 287 291 296 298 303 310 311 308 305 305 303 300 297 299 304 304 306 313
258 282 275 263 266 286 4 19 5 314 255 154 118 281 265 257 248 229 209 201 203 205 202 200 206 212 217 213 195 184 185 191 192 200 218 232 244 270 294 305 316 329 335 332 327 323 321 322 324 326 327 328 327 325 324 321 319 316 313 310 307 304 302 301 298 294 290 286 284 289 297 301 302 303 302 301 302 301 301 301 298 294 297 304 307 308